Newberry, MI

7:36 PM EDT on July 24, 2017 (GMT -0400)
Luce County

Weather History for KERY - November, 2013

Change the Weather History Date:

Sunday, November 17, 2013

  Actual Average Record
Temperature  
Mean Temperature 47 °F -  
Max Temperature 54 °F 39 °F 61 °F (1917)
Min Temperature 40 °F 26 °F -2 °F (1959)
Degree Days  
Heating Degree Days 18    
Moisture  
Dew Point 49 °F    
Average Humidity 97    
Maximum Humidity 100    
Minimum Humidity 92    
Precipitation  
Precipitation 1.66 in - - ()
Sea Level Pressure  
Sea Level Pressure 29.27 in    
Wind  
Wind Speed 13 mph (SW)    
Max Wind Speed 25 mph    
Max Gust Speed 36 mph    
Visibility 4 miles    
Events Fog , Rain    
Averages and records for this station are not official NWS values.
T = Trace of Precipitation, MM = Missing Value Source: NWS Daily Summary

Daily Weather History Graph

Daily Weather History Graph

Search for Another Location

Airport or City:

Trip Planner

Search our weather history database for the weather conditions in past years. The results will help you decide how hot, cold, wet, or windy it might be!

Date:

Astronomy

Nov. 17, 2013 Rise Set
Actual Time 7:46 AM EST 5:06 PM EST
Civil Twilight 7:13 AM EST 5:39 PM EST
Nautical Twilight 6:36 AM EST 6:16 PM EST
Astronomical Twilight 6:01 AM EST 6:51 PM EST
Moon 5:23 PM EST (11/17) 7:39 AM EST (11/17)
Length of Visible Light 10h 26m
Length of Day
9h 20m
Full, 100% of the Moon is Illuminated
Nov 17
Full
Nov 25
Last Quarter
Dec 2
New
Dec 9
First Quarter
Dec 17
Full

Hourly Weather History & Observations

Time (EST) Temp. Windchill Dew Point Humidity Pressure Visibility Wind Dir Wind Speed Gust Speed Precip Events Conditions
12:15 AM 50.9 °F - 50.0 °F 97% 29.47 in 5.0 mi South 17.3 mph 29.9 mph 0.03 in Rain Rain
12:34 AM 50.9 °F - 50.0 °F 97% 29.46 in 7.0 mi South 19.6 mph 31.1 mph 0.04 in Rain Light Rain
12:55 AM 50.5 °F - 49.5 °F 96% 29.46 in 7.0 mi South 17.3 mph 27.6 mph 0.04 in Rain Light Rain
1:15 AM 50.2 °F - 49.1 °F 96% 29.46 in 10.0 mi SSW 15.0 mph 21.9 mph N/A Rain Light Rain
1:35 AM 51.3 °F - 49.6 °F 94% 29.45 in 10.0 mi South 18.4 mph 29.9 mph 0.01 in   Overcast
1:54 AM 51.1 °F - 50.0 °F 96% 29.45 in 7.0 mi South 20.7 mph 33.4 mph 0.02 in Rain Rain
2:15 AM 50.4 °F - 49.5 °F 97% 29.45 in 10.0 mi South 19.6 mph 26.5 mph N/A Rain Light Rain
2:35 AM 50.2 °F - 49.6 °F 98% 29.45 in 5.0 mi South 15.0 mph 23.0 mph N/A   Overcast
2:54 AM 50.0 °F - 49.6 °F 99% 29.45 in 3.0 mi South 11.5 mph 20.7 mph N/A   Overcast
3:15 AM 50.9 °F - 50.7 °F 99% 29.45 in 2.0 mi SSW 16.1 mph 20.7 mph N/A   Overcast
3:35 AM 51.1 °F - 50.9 °F 99% 29.44 in 1.5 mi SSW 20.7 mph 25.3 mph N/A   Overcast
3:54 AM 51.1 °F - 50.9 °F 99% 29.44 in 1.5 mi SSW 15.0 mph 18.4 mph N/A   Overcast
4:15 AM 51.4 °F - 51.1 °F 99% 29.44 in 2.0 mi South 12.7 mph 19.6 mph N/A   Overcast
4:34 AM 51.3 °F - 50.9 °F 99% 29.44 in 2.0 mi South 10.4 mph 17.3 mph N/A   Overcast
4:55 AM 50.5 °F - 50.4 °F 99% 29.45 in 0.8 mi South 10.4 mph 17.3 mph N/A   Overcast
5:15 AM 50.4 °F - 50.2 °F 99% 29.44 in 0.5 mi South 13.8 mph - N/A Fog Fog
5:35 AM 50.7 °F - 50.5 °F 99% 29.44 in 0.8 mi South 13.8 mph 20.7 mph N/A   Overcast
5:55 AM 51.4 °F - 51.4 °F 100% 29.44 in 1.8 mi South 11.5 mph 20.7 mph N/A   Overcast
6:15 AM 51.4 °F - 51.3 °F 99% 29.44 in 2.0 mi South 13.8 mph 17.3 mph N/A   Overcast
6:34 AM 51.3 °F - 51.1 °F 99% 29.44 in 2.0 mi South 9.2 mph 16.1 mph N/A   Overcast
6:55 AM 51.1 °F - 50.9 °F 99% 29.43 in 2.0 mi South 10.4 mph - N/A   Overcast
7:15 AM 51.3 °F - 51.1 °F 99% 29.44 in 2.0 mi South 9.2 mph - N/A   Overcast
7:35 AM 51.3 °F - 50.9 °F 99% 29.44 in 1.8 mi South 9.2 mph - N/A   Overcast
7:55 AM 51.3 °F - 51.1 °F 99% 29.43 in 2.0 mi South 10.4 mph - N/A   Overcast
8:15 AM 51.6 °F - 51.3 °F 99% 29.43 in 1.8 mi South 10.4 mph 16.1 mph N/A   Overcast
8:35 AM 51.6 °F - 51.3 °F 99% 29.42 in 1.0 mi South 5.8 mph - N/A   Overcast
8:55 AM 51.4 °F - 51.3 °F 99% 29.43 in 1.2 mi South 6.9 mph - N/A   Overcast
9:15 AM 51.8 °F - 51.3 °F 98% 29.42 in 2.0 mi South 8.1 mph - N/A   Overcast
9:34 AM 52.0 °F - 51.6 °F 99% 29.41 in 2.0 mi South 5.8 mph - N/A   Overcast
9:55 AM 52.7 °F - 52.2 °F 98% 29.40 in 2.0 mi South 6.9 mph - N/A   Overcast
10:15 AM 53.2 °F - 52.7 °F 98% 29.39 in 2.5 mi South 9.2 mph - N/A   Overcast
10:35 AM 53.8 °F - 53.1 °F 97% 29.38 in 3.0 mi South 9.2 mph - N/A   Overcast
10:55 AM 54.5 °F - 53.6 °F 97% 29.37 in 3.0 mi SSE 9.2 mph 16.1 mph N/A Rain Rain
11:15 AM 54.7 °F - 54.0 °F 97% 29.35 in 3.0 mi SSE 9.2 mph 16.1 mph N/A   Overcast
11:32 AM 54.5 °F - 53.8 °F 97% 29.34 in 2.5 mi SSE 9.2 mph - N/A   Overcast
11:55 AM 54.5 °F - 54.0 °F 98% 29.32 in 1.5 mi SSE 5.8 mph - 0.09 in Rain Heavy Rain
12:15 PM 54.5 °F - 53.8 °F 97% 29.30 in 1.8 mi SSE 4.6 mph - 0.11 in Rain Heavy Rain
12:34 PM 54.3 °F - 53.8 °F 98% 29.28 in 2.0 mi SSE 5.8 mph - 0.19 in Rain Heavy Rain
12:55 PM 54.0 °F - 53.6 °F 99% 29.25 in 1.8 mi ESE 5.8 mph - 0.31 in Rain Heavy Rain
1:15 PM 54.0 °F - 53.6 °F 99% 29.25 in 1.2 mi West 4.6 mph - 0.08 in Rain Heavy Rain
1:35 PM 50.0 °F - 49.1 °F 97% 29.22 in 2.5 mi NW 4.6 mph - 0.23 in Rain Heavy Rain
1:55 PM 49.5 °F - 48.7 °F 97% 29.21 in 3.0 mi NW 6.9 mph - 0.32 in Rain Heavy Rain
2:14 PM 50.0 °F - 48.9 °F 96% 29.19 in 5.0 mi NNW 6.9 mph - 0.05 in Rain Heavy Rain
2:35 PM 49.6 °F - 49.1 °F 98% 29.17 in 4.0 mi NNW 6.9 mph - 0.16 in Rain Heavy Rain
2:55 PM 49.5 °F - 49.1 °F 99% 29.15 in 5.0 mi NNW 6.9 mph - 0.21 in Rain Rain
3:15 PM 49.6 °F - 49.1 °F 98% 29.13 in 10.0 mi North 5.8 mph - 0.01 in Rain Light Rain
3:35 PM 49.6 °F - 49.1 °F 98% 29.12 in 10.0 mi North 6.9 mph - 0.01 in Rain Light Rain
3:54 PM 49.5 °F - 48.7 °F 97% 29.09 in 10.0 mi North 6.9 mph - 0.01 in   Overcast
4:15 PM 49.5 °F - 48.7 °F 97% 29.11 in 10.0 mi North 6.9 mph - N/A   Overcast
4:35 PM 49.3 °F - 48.4 °F 97% 29.10 in 10.0 mi North 6.9 mph - N/A   Overcast
4:55 PM 49.1 °F - 48.2 °F 97% 29.10 in 7.0 mi NNW 6.9 mph - 0.01 in Rain Rain
5:15 PM 48.4 °F - 48.2 °F 99% 29.08 in 4.0 mi NNW 6.9 mph - 0.03 in Rain Rain
5:34 PM 48.4 °F - 48.2 °F 99% 29.06 in 2.5 mi NNW 8.1 mph - 0.09 in Rain Heavy Rain
5:55 PM 48.4 °F - 48.2 °F 99% 29.05 in 3.0 mi North 8.1 mph - 0.18 in Rain Heavy Rain
6:14 PM 48.6 °F - 48.2 °F 99% 29.05 in 3.0 mi NNW 8.1 mph - 0.04 in Rain Rain
6:34 PM 48.2 °F - 47.7 °F 98% 29.05 in 3.0 mi NNW 6.9 mph - 0.06 in Rain Heavy Rain
6:55 PM 47.5 °F - 46.8 °F 97% 29.04 in 3.0 mi NW 10.4 mph 18.4 mph 0.14 in Rain Heavy Rain
7:14 PM 47.1 °F - 46.4 °F 97% 29.04 in 2.5 mi WNW 11.5 mph 16.1 mph 0.06 in   Unknown
7:35 PM 46.9 °F - 46.4 °F 98% 29.04 in 3.0 mi WNW 13.8 mph 23.0 mph 0.14 in   Unknown
7:54 PM 46.8 °F - 45.9 °F 97% 29.03 in 4.0 mi WNW 19.6 mph 27.6 mph 0.18 in Rain Rain
8:14 PM 44.6 °F 36.4 °F 43.0 °F 94% 29.04 in 5.0 mi WNW 20.7 mph 27.6 mph 0.01 in   Overcast
8:34 PM 43.7 °F 35.7 °F 42.3 °F 95% 29.03 in 4.0 mi NW 18.4 mph 31.1 mph 0.03 in   Overcast
8:55 PM 43.5 °F 36.4 °F 41.9 °F 94% 29.04 in 5.0 mi WNW 15.0 mph 27.6 mph 0.05 in   Overcast
9:15 PM 43.2 °F 35.6 °F 41.7 °F 95% 29.05 in 7.0 mi WNW 16.1 mph 27.6 mph 0.01 in   Overcast
9:34 PM 43.2 °F 35.3 °F 41.9 °F 95% 29.06 in 5.0 mi WNW 17.3 mph 26.5 mph 0.03 in   Overcast
9:55 PM 43.0 °F 34.2 °F 41.4 °F 94% 29.06 in 5.0 mi WNW 20.7 mph 27.6 mph 0.06 in   Overcast
10:14 PM 42.8 °F 34.3 °F 41.2 °F 94% 29.07 in 5.0 mi West 19.6 mph 27.6 mph 0.01 in Rain Light Rain
10:34 PM 42.3 °F 33.1 °F 40.5 °F 93% 29.08 in 5.0 mi WNW 21.9 mph 32.2 mph 0.03 in   Overcast
10:55 PM 41.9 °F 32.1 °F 39.9 °F 93% 29.09 in 7.0 mi WNW 24.2 mph 34.5 mph 0.04 in Rain Light Rain
11:14 PM 41.2 °F 32.4 °F 39.2 °F 93% 29.10 in 10.0 mi West 18.4 mph 35.7 mph N/A Rain Light Rain
11:35 PM 40.6 °F 32.0 °F 38.5 °F 92% 29.11 in 10.0 mi West 17.3 mph 31.1 mph N/A Rain Light Rain
11:54 PM 40.1 °F 29.5 °F 38.3 °F 93% 29.13 in 10.0 mi West 25.3 mph 34.5 mph N/A   Overcast